"1997/01/01",1015.4,1021.7,1003.9
"1997/01/02", 998.8,1003.9, 994.6
"1997/01/03",1006.3,1012.3,1002.9
"1997/01/04",1016.9,1023.2,1012.2
"1997/01/05",1021.7,1025.7,1010.1
"1997/01/06",1007.0,1010.4,1002.7
"1997/01/07",1013.8,1016.9,1010.4
"1997/01/08",1016.3,1018.0,1014.1
"1997/01/09",1018.8,1020.3,1017.4
"1997/01/10",1018.5,1020.5,1016.7
"1997/01/11",1017.9,1019.9,1015.9
"1997/01/12",1021.3,1023.1,1019.7
"1997/01/13",1023.9,1025.6,1022.6
"1997/01/14",1017.9,1023.4,1013.5
"1997/01/15",1017.8,1020.1,1015.0
"1997/01/16",1018.2,1020.1,1016.5
"1997/01/17",1018.1,1020.7,1015.8
"1997/01/18",1009.0,1015.8,1005.0
"1997/01/19",1013.2,1015.1,1008.8
"1997/01/20",1012.4,1015.2,1008.2
"1997/01/21", 997.4,1008.2, 989.4
"1997/01/22",1003.2,1009.8, 996.4
"1997/01/23",1011.9,1015.0,1008.9
"1997/01/24",1004.1,1009.2, 996.6
"1997/01/25",1000.5,1005.6, 996.1
"1997/01/26",1006.6,1009.3,1004.1
"1997/01/27",1007.5,1010.2,1004.8
"1997/01/28",1004.5,1007.1, 999.7
"1997/01/29",1002.2,1005.9, 999.2
"1997/01/30",1010.1,1015.9,1004.9
"1997/01/31",1015.8,1017.9,1014.3
"1997/02/01",1015.8,1020.2,1014.2
"1997/02/02",1021.5,1023.5,1019.9
"1997/02/03",1009.1,1020.1,1001.9
"1997/02/04",1008.5,1010.0,1005.6
"1997/02/05","  * ","  * ","  * "
"1997/02/06","  * ","  * ","  * "
"1997/02/07","  * ","  * ","  * "
"1997/02/08","  * ","  * ","  * "
"1997/02/09","  * ","  * ","  * "
"1997/02/10","  * ","  * ","  * "
"1997/02/11","  * ","  * ","  * "
"1997/02/12",1011.6,1014.8,1007.2
"1997/02/13",1017.1,1019.0,1014.8
"1997/02/14",1020.7,1024.0,1018.8
"1997/02/15",1022.5,1025.7,1017.4
"1997/02/16",1004.4,1017.5, 996.3
"1997/02/17",1005.8,1008.5,1000.5
"1997/02/18",1007.5,1009.7,1005.8
"1997/02/19",1012.0,1017.0,1006.7
"1997/02/20",1014.5,1018.6,1008.5
"1997/02/21",1005.3,1010.9,1001.2
"1997/02/22",1016.9,1023.6,1010.8
"1997/02/23",1025.6,1027.4,1023.6
"1997/02/24",1026.3,1027.6,1025.1
"1997/02/25",1021.8,1027.0,1012.1
"1997/02/26",1015.3,1020.7,1010.7
"1997/02/27",1026.0,1028.8,1020.7
"1997/02/28",1023.3,1028.5,1013.4
"1997/03/01",1007.7,1015.1,1003.5
"1997/03/02",1017.8,1021.0,1015.1
"1997/03/03",1019.5,1021.0,1016.4
"1997/03/04",1019.3,1021.0,1017.1
"1997/03/05",1020.6,1024.3,1018.1
"1997/03/06",1023.9,1027.5,1019.6
"1997/03/07",1012.9,1019.6,1008.7
"1997/03/08",1014.3,1016.7,1011.7
"1997/03/09",1017.6,1022.5,1015.3
"1997/03/10",1021.5,1025.6,1014.1
"1997/03/11",1011.0,1017.7,1007.3
"1997/03/12",1021.2,1023.6,1017.7
"1997/03/13",1022.4,1025.1,1019.3
"1997/03/14",1015.8,1019.3,1013.2
"1997/03/15",1016.4,1018.2,1014.8
"1997/03/16",1018.1,1019.1,1017.1
"1997/03/17",1022.4,1024.6,1019.1
"1997/03/18",1022.7,1025.8,1018.6
"1997/03/19",1015.7,1018.6,1013.6
"1997/03/20",1017.8,1020.2,1015.8
"1997/03/21",1017.6,1021.0,1012.6
"1997/03/22",1008.1,1012.9,1004.3
"1997/03/23",1010.9,1013.2,1009.7
"1997/03/24",1015.4,1021.5,1010.1
"1997/03/25",1018.8,1022.1,1015.4
"1997/03/26",1022.2,1023.9,1018.1
"1997/03/27",1016.5,1021.7,1012.7
"1997/03/28",1019.6,1021.2,1017.2
"1997/03/29",1017.1,1020.6,1006.9
"1997/03/30",1004.8,1013.2,1001.2
"1997/03/31",1016.9,1019.6,1013.1
"1997/04/01",1023.0,1025.1,1019.6
"1997/04/02",1021.0,1023.7,1017.6
"1997/04/03",1017.1,1018.0,1016.1
"1997/04/04",1016.2,1017.7,1014.6
"1997/04/05",1013.5,1017.0,1010.9
"1997/04/06",1012.3,1015.2,1007.0
"1997/04/07",1002.7,1008.5, 996.0
"1997/04/08",1004.0,1006.6,1000.4
"1997/04/09",1002.3,1005.5, 999.2
"1997/04/10",1005.0,1007.8,1000.0
"1997/04/11",1003.3,1006.9, 999.0
"1997/04/12",1006.4,1008.7,1004.7
"1997/04/13",1008.7,1010.5,1006.7
"1997/04/14",1011.6,1013.3,1009.6
"1997/04/15",1013.2,1015.0,1011.4
"1997/04/16",1017.0,1020.7,1014.6
"1997/04/17",1020.5,1022.4,1018.8
"1997/04/18",1017.5,1019.9,1014.4
"1997/04/19",1019.5,1023.2,1016.7
"1997/04/20",1024.7,1026.6,1023.0
"1997/04/21",1024.2,1026.4,1022.1
"1997/04/22",1017.6,1022.2,1013.4
"1997/04/23",1012.7,1014.7,1011.7
"1997/04/24",1014.3,1015.5,1012.2
"1997/04/25",1016.4,1018.8,1014.6
"1997/04/26",1018.9,1020.0,1017.4
"1997/04/27",1016.5,1019.1,1013.8
"1997/04/28",1011.5,1014.8,1005.2
"1997/04/29",1006.3,1007.9,1004.8
"1997/04/30",1004.8,1006.8,1002.8
"1997/05/01",1011.9,1014.9,1006.7
"1997/05/02",1009.5,1013.8,1006.1
"1997/05/03",1013.1,1015.6,1008.2
"1997/05/04",1007.8,1013.5,1004.5
"1997/05/05",1010.2,1014.1,1004.7
"1997/05/06",1011.3,1013.3,1008.5
"1997/05/07",1016.2,1019.7,1011.9
"1997/05/08",1000.3,1012.5, 994.2
"1997/05/09",1004.2,1012.1, 994.3
"1997/05/10",1013.5,1015.1,1012.0
"1997/05/11",1013.0,1014.7,1010.7
"1997/05/12",1017.6,1021.5,1013.5
"1997/05/13",1018.9,1021.2,1015.4
"1997/05/14",1011.3,1015.4,1007.2
"1997/05/15",1002.9,1007.2, 999.1
"1997/05/16", 999.5,1000.9, 997.8
"1997/05/17", 999.6,1005.3, 997.4
"1997/05/18",1005.9,1008.0,1004.3
"1997/05/19",1003.5,1005.4,1000.3
"1997/05/20", 999.1,1000.7, 997.5
"1997/05/21",1001.1,1006.0, 996.9
"1997/05/22",1009.8,1015.1,1005.1
"1997/05/23",1016.6,1017.6,1015.0
"1997/05/24",1011.0,1016.4,1001.8
"1997/05/25", 999.2,1003.3, 996.9
"1997/05/26",1005.0,1007.5,1003.2
"1997/05/27",1008.9,1011.4,1007.1
"1997/05/28",1012.2,1014.4,1011.0
"1997/05/29",1010.9,1014.2,1008.6
"1997/05/30",1007.4,1008.6,1006.1
"1997/05/31",1006.6,1008.6,1004.8
"1997/06/01",1010.9,1013.3,1008.5
"1997/06/02",1013.1,1013.9,1012.0
"1997/06/03",1012.4,1013.7,1010.7
"1997/06/04",1007.4,1010.7,1003.2
"1997/06/05",1003.2,1004.5,1002.0
"1997/06/06",1004.0,1006.7,1002.1
"1997/06/07",1008.6,1009.8,1006.5
"1997/06/08",1011.9,1013.5,1009.2
"1997/06/09",1006.4,1012.4, 999.5
"1997/06/10", 996.3,1000.0, 994.1
"1997/06/11",1004.0,1006.0, 999.9
"1997/06/12",1008.2,1013.1,1005.2
"1997/06/13",1014.0,1014.8,1013.1
"1997/06/14",1013.0,1014.2,1011.3
"1997/06/15",1012.6,1014.2,1010.9
"1997/06/16",1011.1,1012.9,1010.0
"1997/06/17",1014.0,1016.0,1012.3
"1997/06/18",1016.1,1017.9,1014.7
"1997/06/19",1014.0,1015.5,1012.5
"1997/06/20",1002.3,1012.6, 990.6
"1997/06/21",1002.8,1009.2, 997.3
"1997/06/22",1008.9,1010.3,1007.6
"1997/06/23",1007.6,1008.5,1006.6
"1997/06/24",1007.9,1009.2,1006.6
"1997/06/25",1009.2,1010.4,1007.8
"1997/06/26",1007.4,1009.4,1005.3
"1997/06/27",1004.6,1006.2,1002.8
"1997/06/28", 998.0,1004.0, 986.2
"1997/06/29", 995.8,1006.4, 982.8
"1997/06/30",1008.9,1010.9,1006.2
"1997/07/01",1010.4,1011.9,1009.2
"1997/07/02",1006.5,1009.5,1003.7
"1997/07/03",1005.4,1007.0,1003.9
"1997/07/04",1003.0,1005.3,1000.4
"1997/07/05", 999.8,1001.4, 997.5
"1997/07/06",1002.6,1006.1,1000.6
"1997/07/07",1004.6,1006.1,1002.9
"1997/07/08",1005.3,1007.4,1003.9
"1997/07/09",1005.5,1007.2,1004.0
"1997/07/10",1009.1,1010.4,1006.7
"1997/07/11",1007.6,1009.1,1006.5
"1997/07/12",1006.9,1007.9,1005.6
"1997/07/13",1007.0,1008.0,1006.0
"1997/07/14",1004.7,1006.0,1003.5
"1997/07/15",1003.1,1004.8,1001.4
"1997/07/16", 999.9,1001.5, 997.4
"1997/07/17",1003.0,1006.5, 999.7
"1997/07/18",1008.6,1011.5,1005.7
"1997/07/19",1012.2,1013.8,1011.2
"1997/07/20",1013.0,1013.9,1011.9
"1997/07/21",1012.8,1014.6,1011.6
"1997/07/22",1013.8,1014.8,1012.2
"1997/07/23",1013.8,1014.9,1012.7
"1997/07/24",1012.7,1013.9,1011.4
"1997/07/25",1011.1,1012.5,1009.1
"1997/07/26",1007.3,1009.3,1004.9
"1997/07/27",1005.1,1005.9,1004.4
"1997/07/28",1004.0,1005.4,1002.7
"1997/07/29",1003.8,1004.8,1002.9
"1997/07/30",1005.8,1007.4,1004.2
"1997/07/31",1008.3,1010.0,1007.0
"1997/08/01",1009.5,1010.2,1008.3
"1997/08/02",1009.4,1010.4,1008.3
"1997/08/03",1008.2,1010.1,1005.6
"1997/08/04",1006.1,1008.2,1003.9
"1997/08/05",1002.0,1003.9,1000.0
"1997/08/06",1002.9,1004.3,1001.7
"1997/08/07",1003.6,1006.6,1001.8
"1997/08/08",1006.5,1007.3,1005.2
"1997/08/09",1004.5,1006.1,1003.0
"1997/08/10",1003.9,1006.8,1002.5
"1997/08/11",1009.7,1011.3,1006.7
"1997/08/12",1009.6,1011.0,1008.2
"1997/08/13",1008.3,1009.9,1006.5
"1997/08/14",1011.8,1014.0,1009.5
"1997/08/15",1013.8,1014.8,1012.8
"1997/08/16",1014.0,1014.5,1013.2
"1997/08/17",1014.0,1015.2,1013.3
"1997/08/18",1016.0,1017.8,1014.4
"1997/08/19",1017.6,1018.1,1016.6
"1997/08/20",1013.8,1017.6,1011.3
"1997/08/21",1010.0,1011.8,1008.7
"1997/08/22",1005.7,1008.9,1003.4
"1997/08/23",1002.7,1003.6,1001.4
"1997/08/24",1003.1,1004.4,1001.7
"1997/08/25",1007.0,1009.5,1004.0
"1997/08/26",1010.2,1011.4,1008.8
"1997/08/27",1009.1,1010.9,1006.9
"1997/08/28",1008.6,1010.4,1007.4
"1997/08/29",1010.3,1012.0,1008.8
"1997/08/30",1009.7,1011.0,1008.1
"1997/08/31",1008.0,1009.6,1006.4
"1997/09/01",1005.5,1006.9,1004.0
"1997/09/02",1002.1,1005.1, 999.6
"1997/09/03", 995.9, 999.9, 992.5
"1997/09/04",1001.7,1008.3, 994.5
"1997/09/05",1011.7,1014.5,1007.9
"1997/09/06",1015.6,1017.4,1014.4
"1997/09/07",1012.2,1015.6,1010.3
"1997/09/08",1010.9,1012.2,1009.5
"1997/09/09",1010.1,1012.3,1008.0
"1997/09/10",1008.9,1010.5,1007.9
"1997/09/11",1010.6,1012.0,1009.5
"1997/09/12",1013.4,1016.6,1010.6
"1997/09/13",1016.9,1017.7,1015.2
"1997/09/14",1013.7,1015.6,1012.1
"1997/09/15",1016.1,1018.8,1013.5
"1997/09/16",1018.2,1020.0,1013.6
"1997/09/17",1009.0,1013.6,1006.2
"1997/09/18",1006.5,1008.9,1001.7
"1997/09/19", 996.3,1005.0, 989.8
"1997/09/20",1011.5,1014.4,1005.1
"1997/09/21",1012.8,1014.2,1011.2
"1997/09/22",1016.5,1018.8,1014.2
"1997/09/23",1018.7,1019.9,1017.9
"1997/09/24",1018.4,1020.1,1016.8
"1997/09/25",1019.6,1021.1,1017.2
"1997/09/26",1008.8,1017.2,1003.9
"1997/09/27",1000.9,1004.4, 997.8
"1997/09/28",1007.3,1011.5,1003.3
"1997/09/29",1012.8,1015.1,1011.3
"1997/09/30",1017.8,1021.1,1015.1
"1997/10/01",1023.4,1025.0,1021.1
"1997/10/02",1024.4,1025.4,1023.1
"1997/10/03",1021.6,1024.2,1019.8
"1997/10/04",1016.2,1019.8,1012.7
"1997/10/05",1008.3,1013.0,1005.2
"1997/10/06",1014.4,1018.0,1009.0
"1997/10/07",1015.0,1017.9,1012.3
"1997/10/08",1009.8,1015.0,1004.8
"1997/10/09",1017.7,1020.6,1014.8
"1997/10/10",1010.3,1015.8,1004.8
"1997/10/11",1003.4,1004.8,1001.5
"1997/10/12",1007.2,1011.3,1004.4
"1997/10/13",1011.1,1012.5,1009.7
"1997/10/14",1010.3,1013.0,1008.0
"1997/10/15",1009.6,1014.4,1007.5
"1997/10/16",1017.4,1019.6,1014.4
"1997/10/17",1015.9,1019.2,1012.7
"1997/10/18",1011.4,1013.1,1009.5
"1997/10/19",1015.9,1017.7,1013.1
"1997/10/20",1011.9,1014.3,1009.5
"1997/10/21",1009.8,1011.5,1007.3
"1997/10/22",1011.0,1013.1,1009.0
"1997/10/23",1013.8,1015.5,1012.5
"1997/10/24",1014.1,1015.7,1012.0
"1997/10/25",1006.9,1012.0,1002.9
"1997/10/26",1004.9,1006.7,1002.6
"1997/10/27",1007.8,1015.6,1004.1
"1997/10/28",1019.8,1022.2,1015.5
"1997/10/29",1019.2,1021.8,1017.1
"1997/10/30",1016.1,1018.3,1013.5
"1997/10/31",1011.1,1014.0,1007.9
"1997/11/01",1019.6,1026.7,1012.5
"1997/11/02",1027.6,1029.6,1026.4
"1997/11/03",1023.4,1026.4,1021.1
"1997/11/04",1018.7,1021.1,1016.0
"1997/11/05",1013.0,1016.0,1009.9
"1997/11/06",1017.3,1020.1,1014.3
"1997/11/07",1022.0,1023.3,1020.1
"1997/11/08",1020.8,1022.4,1018.2
"1997/11/09",1024.4,1029.3,1021.2
"1997/11/10",1029.3,1031.6,1026.4
"1997/11/11",1024.5,1026.4,1022.1
"1997/11/12",1019.8,1025.0,1014.1
"1997/11/13",1015.3,1017.6,1013.4
"1997/11/14",1014.9,1017.2,1011.0
"1997/11/15",1011.4,1014.8,1009.1
"1997/11/16",1015.6,1017.1,1014.1
"1997/11/17",1002.0,1014.2, 993.5
"1997/11/18",1003.7,1016.0, 996.2
"1997/11/19",1025.6,1031.7,1016.0
"1997/11/20",1030.3,1031.8,1027.8
"1997/11/21",1023.7,1027.8,1016.7
"1997/11/22",1006.2,1016.7, 998.0
"1997/11/23",1005.5,1015.5, 997.8
"1997/11/24",1022.5,1028.5,1015.4
"1997/11/25",1029.4,1031.5,1026.1
"1997/11/26",1017.8,1026.2,1007.4
"1997/11/27",1014.5,1025.2,1006.7
"1997/11/28",1029.9,1032.4,1025.1
"1997/11/29",1020.0,1030.4,1007.9
"1997/11/30",1011.9,1021.7,1005.8
"1997/12/01",1018.1,1023.7,1009.4
"1997/12/02",1007.0,1010.7,1003.2
"1997/12/03",1020.6,1027.5,1010.7
"1997/12/04",1030.5,1032.5,1027.4
"1997/12/05",1032.2,1033.4,1030.4
"1997/12/06",1030.2,1033.3,1025.0
"1997/12/07",1017.2,1025.0,1011.6
"1997/12/08",1009.7,1011.5,1007.6
"1997/12/09",1008.9,1011.5,1007.1
"1997/12/10",1009.2,1014.7,1005.3
"1997/12/11",1014.4,1018.8,1008.1
"1997/12/12",1012.6,1016.0,1008.2
"1997/12/13",1018.7,1022.8,1012.6
"1997/12/14",1022.3,1023.9,1020.6
"1997/12/15",1014.9,1020.6,1010.7
"1997/12/16",1018.9,1021.3,1015.2
"1997/12/17",1016.4,1020.9,1008.9
"1997/12/18",1008.9,1013.4,1006.0
"1997/12/19",1017.4,1019.6,1013.3
"1997/12/20",1016.3,1017.5,1014.6
"1997/12/21",1018.6,1024.9,1015.6
"1997/12/22",1026.3,1028.3,1024.2
"1997/12/23",1021.9,1024.2,1020.1
"1997/12/24",1022.1,1023.6,1020.7
"1997/12/25",1026.9,1029.6,1023.5
"1997/12/26",1027.1,1029.6,1023.9
"1997/12/27",1019.2,1024.0,1016.8
"1997/12/28",1018.1,1021.4,1016.5
"1997/12/29",1023.1,1025.5,1020.6
"1997/12/30",1010.7,1020.6,1003.2
"1997/12/31",1011.8,1017.5,1003.9
